Location: Le Rocchette
(44.3500°N, 7.8333°E)
Time: 21:49:19
(UTC+00:00)

Cosmos 972 Rocket - Pass Details

Date: 17 November 2019
Orbit: 713 x 1151 km, 75.8° (Epoch: 10 December)

Event Time Altitude Azimuth Distance (km) Brightness Sun altitude
Rises 05:26:56 0° 189° (S) 3,123 7.3 -10.8°
Reaches altitude 10° 05:29:11 10° 186° (S) 2,232 6.5 -10.4°
Maximum altitude 05:34:08 68° 105° (ESE) 832 4.5 -9.5°
Drops below altitude 10° 05:39:36 10° 23° (NNE) 2,451 6.7 -8.6°
Sets 05:42:10 0° 21° (NNE) 3,456 7.4 -8.2°
